This demonstration page uses our WeatherBlox Daily Observations layout. Learn more.

Left ArrowRight Arrow

Hourly Observations for February 9, 2019

Temp ( °F °C ) Dew Point ( °F °C ) Humidity (%) Winds ( mph kmh ) Pressure ( in mb ) Visibility ( mi km ) Precip ( " mm )
12:52 am 00:52 Cloudy 8 -13.3 -4 -20 57 57 SE 9 15 30.77 1042 10 16 0.00 0.00
1:52 am 01:52 Mostly Cloudy 7 -13.9 -4 -20 60 60 SE 8 13 30.77 1042 10 16 0.00 0.00
2:52 am 02:52 Mostly Cloudy 8 -13.3 -4 -20 57 57 SE 8 13 30.76 1042 10 16 0.00 0.00
3:52 am 03:52 Mostly Cloudy 8 -13.3 -3 -19.4 60 60 SE 12 19 30.74 1041 10 16 0.00 0.00
4:52 am 04:52 Clear 9 -12.8 -2 -18.9 61 61 SE 14 22 30.72 1040 10 16 0.00 0.00
5:52 am 05:52 Clear 9 -12.8 -1 -18.3 64 64 SE 10 17 30.73 1041 10 16 0.00 0.00
6:52 am 06:52 Mostly Cloudy 10 -12.2 1 -17.2 67 67 SE 13 20 30.72 1040 10 16 0.00 0.00
7:52 am 07:52 Mostly Cloudy 13 -10.6 3 -16.1 64 64 SSE 18 30 30.71 1040 10 16 0.00 0.00
8:52 am 08:52 Mostly Cloudy 13 -10.6 4 -15.6 67 67 SE 18 30 30.70 1040 10 16 0.00 0.00
9:52 am 09:52 Mostly Cloudy 16 -8.9 4 -15.6 59 59 SE 23 37 30.67 1039 10 16 0.00 0.00
10:52 am 10:52 Mostly Cloudy 19 -7.2 7 -13.9 59 59 SSE 21 33 30.65 1038 10 16 0.00 0.00
11:52 am 11:52 Mostly Cloudy 21 -6.1 9 -12.8 59 59 SSE 24 39 30.63 1037 10 16 0.00 0.00
12:52 pm 12:52 Mostly Cloudy 23 -5 10 -12.2 57 57 SE 22 35 30.59 1036 10 16 0.00 0.00
1:52 pm 13:52 Mostly Cloudy 26 -3.3 12 -11.1 55 55 SE 23 37 30.53 1034 10 16 0.00 0.00
2:52 pm 14:52 Mostly Cloudy 27 -2.8 12 -11.1 53 53 SE 22 35 30.48 1032 10 16 0.00 0.00
3:52 pm 15:52 Cloudy 27 -2.8 12 -11.1 53 53 SE 23 37 30.47 1032 10 16 0.00 0.00
4:52 pm 16:52 Cloudy 27 -2.8 13 -10.6 55 55 SSE 13 20 30.46 1032 10 16 0.00 0.00
5:52 pm 17:52 Cloudy 27 -2.8 13 -10.6 55 55 SE 17 28 30.43 1031 10 16 0.00 0.00
6:52 pm 18:52 Cloudy 27 -2.8 14 -10 58 58 SSE 16 26 30.44 1031 10 16 0.00 0.00
7:52 pm 19:52 Cloudy 26 -3.3 14 -10 60 60 SE 14 22 30.43 1031 10 16 0.00 0.00
8:52 pm 20:52 Cloudy 26 -3.3 15 -9.4 63 63 SSE 17 28 30.42 1030 10 16 0.00 0.00
9:52 pm 21:52 Cloudy 26 -3.3 16 -8.9 66 66 SE 16 26 30.42 1030 10 16 0.00 0.00
10:52 pm 22:52 Cloudy 26 -3.3 17 -8.3 69 69 SE 14 22 30.38 1029 10 16 0.00 0.00
11:52 pm 23:52 Cloudy 27 -2.8 18 -7.8 69 69 SE 12 19 30.36 1028 10 16 0.00 0.00

Powered by AerisWeather